Flag for Germany Weather past 2 weeks in Saarbrücken, Saarland, Germany

Now
64 °F

Passing clouds.


Feels Like: 64 °F
Forecast: 49 / 68 °F
Wind: 10 mph from Northeast

Location: Saarbruecken / Ensheim

Current Time: May 23, 2015 at 2:40:26 PM

Latest Report: May 23, 2015 at 2:20 PM


Visibility: N/A

Pressure: 30.09 "Hg

Humidity: 43%

Dew point: 41 °F

Location of SaarbrückenLocation

Historic Weather in Saarbrücken — Graph

°F

Saarbrücken temperature yesterday

Maximum temperature yesterday: 64 °F (at 5:50 PM)
Minimum temperature yesterday: 43 °F (at 12:50 AM)
Average temperature yesterday: 55 °F

Past Weeks' High & Low Weather Summary

 TemperatureHumidityPressure
High79 °F (May 12, 3:50 PM)100% (May 15, 2:50 AM)30.36 "Hg (May 15, 2:50 AM)
Low37 °F (May 21, 4:20 AM)34% (May 11, 2:50 PM)29.74 "Hg (May 18, 6:20 PM)
Average57 °F65%30.09 "Hg
* Reported May 8 1:20 PM — May 23 1:20 PM, Saarbrücken, Weather by CustomWeather, © 2015

Note: Actual official high and low records may vary slightly from our data, if they occured in-between our weather recording intervals... More about our weather records

Advertising

Saarbrücken weather history for previous 24 hours

 ConditionsComfort  
Time TempWeatherWind HumidityBarometerVisibility
1:20 PM
Sat, May 23
64 °FPartly sunny.9 mph46%30.12 "HgN/A
12:50 PM64 °FPartly sunny.9 mph43%30.12 "HgN/A
12:20 PM64 °FPartly sunny.7 mph46%30.12 "HgN/A
11:50 AM63 °FPassing clouds.7 mph49%30.12 "HgN/A
11:20 AM63 °FSunny.7 mph52%30.12 "Hg10 mi
10:50 AM61 °FPassing clouds.7 mph52%30.12 "HgN/A
10:20 AM59 °FPassing clouds.8 mph59%30.12 "HgN/A
9:50 AM59 °FPassing clouds.8 mph59%30.12 "HgN/A
9:20 AM57 °FPassing clouds.7 mph63%30.12 "HgN/A
8:50 AM57 °FPassing clouds.7 mph63%30.12 "HgN/A
8:20 AM57 °FSunny.7 mph59%30.12 "Hg10 mi
7:50 AM55 °FPassing clouds.5 mph67%30.12 "HgN/A
7:20 AM54 °FSunny.No wind77%30.12 "Hg10 mi
6:50 AM54 °FSunny.No wind72%30.12 "Hg10 mi
6:20 AM54 °FPassing clouds.3 mph67%30.12 "HgN/A
5:50 AM54 °FClear.1 mph67%30.12 "Hg10 mi
5:20 AM54 °FClear.2 mph67%30.12 "Hg10 mi
4:50 AM55 °FClear.8 mph63%30.12 "Hg10 mi
4:20 AM54 °FClear.2 mph67%30.12 "Hg10 mi
3:50 AM55 °FClear.7 mph59%30.12 "Hg10 mi
3:20 AM54 °FClear.No wind72%30.12 "Hg10 mi
2:50 AM54 °FClear.No wind67%30.15 "Hg10 mi
2:20 AM54 °FClear.1 mph67%30.15 "Hg10 mi
1:50 AM54 °FClear.1 mph67%30.15 "Hg10 mi
1:20 AM54 °FClear.No wind72%30.15 "Hg10 mi
12:50 AM55 °FClear.2 mph63%30.18 "Hg10 mi
12:20 AM55 °FClear.3 mph59%30.18 "Hg10 mi
11:50 PM
Fri, May 22
55 °FPassing clouds.3 mph63%30.18 "HgN/A
11:20 PM57 °FClear.3 mph59%30.18 "Hg10 mi
10:50 PM57 °FClear.3 mph55%30.18 "Hg10 mi
10:20 PM59 °FClear.3 mph51%30.18 "Hg10 mi
9:50 PM59 °FSunny.3 mph51%30.18 "Hg10 mi
9:20 PM61 °FSunny.5 mph48%30.18 "Hg10 mi
8:50 PM61 °FSunny.3 mph52%30.18 "Hg10 mi
8:20 PM61 °FSunny.2 mph48%30.18 "Hg10 mi
7:50 PM61 °FSunny.3 mph48%30.18 "Hg10 mi
7:20 PM63 °FPassing clouds.3 mph42%30.18 "HgN/A
6:50 PM63 °FPassing clouds.7 mph42%30.18 "HgN/A
6:20 PM63 °FPassing clouds.5 mph39%30.18 "HgN/A
5:50 PM64 °FSunny.7 mph40%30.21 "Hg10 mi
5:20 PM63 °FPassing clouds.3 mph42%30.21 "HgN/A
4:50 PM63 °FPassing clouds.8 mph42%30.21 "HgN/A
4:20 PM63 °FPassing clouds.5 mph42%30.21 "HgN/A
3:50 PM63 °FPassing clouds.6 mph42%30.24 "HgN/A
3:20 PM61 °FPassing clouds.7 mph48%30.24 "HgN/A
2:50 PM61 °FPassing clouds.6 mph52%30.24 "HgN/A
2:20 PM59 °FPassing clouds.7 mph55%30.27 "HgN/A
Weather by CustomWeather, © 2015

See weather overviewHow to use our weather pages